#timestamp,LO_Frequency,Hit,StdDev 
1512158415.9,286047021.0,N
1512158435.7,286047028.0,N
1512158455.6,286047031.3,N
1512158475.4,286047030.5,N
1512158495.2,286047031.6,N
1512158515.0,286047034.6,N
1512158515.9,286047034.6,N
1512158535.8,286047036.3,N
1512158555.6,286047039.6,N
1512158575.4,286047037.8,N
1512158595.3,286047034.7,N
1512158615.1,286047031.9,N
1512158635.8,286047034.5,N
1512158655.7,286047030.9,N
1512158675.5,286047029.7,N
1512158695.3,286047031.4,N
1512158715.2,286047029.0,N
1512158735.9,286047030.7,N
1512158755.7,286047031.4,N
1512158775.6,286047031.3,N
1512158795.4,286047033.0,Y
1512158815.2,286047008.1,P
1512158835.1,286047008.2,N
1512158836.0,286047008.2,N
1512158855.8,286047010.4,N
1512158875.6,286047008.3,N
1512158895.4,286047008.2,N
1512158915.3,286047007.9,N
1512158935.1,286047010.5,N
1512158955.8,286047009.8,N
1512158975.7,286047011.5,N
1512158995.5,286047014.0,N
1512159015.3,286047015.2,Y
1512159035.2,286047001.0,P
1512159055.0,286047001.2,N
1512159055.9,286047001.2,N
1512159075.7,286046997.4,N
1512159095.6,286046992.9,N
1512159115.4,286046991.7,N
1512159135.2,286046989.7,N
1512159155.1,286046983.2,N
1512159156.0,286046983.2,N
1512159175.8,286046980.0,N
1512159195.6,286046977.0,N
1512159215.5,286046974.7,N
1512159235.3,286046977.1,N
1512159255.1,286046972.7,N
1512159275.9,286046967.9,N
1512159295.7,286046966.2,N
1512159315.5,286046964.0,N
1512159335.3,286046961.8,N
1512159355.2,286046958.8,N
1512159375.0,286046951.8,Y
1512159375.9,286046951.8,P
1512159395.7,286046968.8,N
1512159415.6,286046966.7,N
1512159435.4,286046969.4,N
1512159455.2,286046968.9,Y
1512159475.1,286046995.2,P
1512159476.0,286046995.2,N
1512159495.8,286046993.8,N
1512159515.6,286046990.5,N
1512159535.5,286046989.8,N
1512159555.3,286046989.6,N
1512159575.1,286046985.5,N
1512159595.9,286046986.2,N
1512159615.7,286046986.3,N
1512159635.5,286046990.2,N
1512159655.4,286046992.9,N
1512159675.2,286046994.5,N
1512159695.0,286046995.2,N
1512159695.9,286046995.2,N
1512159715.8,286046998.6,N
1512159735.6,286046999.7,N
1512159755.4,286047002.7,N
1512159775.2,286047002.2,N
1512159795.1,286047003.1,N
1512159796.0,286047003.1,N
1512159815.8,286047005.1,N
1512159835.6,286047005.2,N
1512159855.5,286047007.5,N
1512159875.3,286047006.9,N
1512159895.1,286047008.5,N
1512159915.9,286047005.6,N
1512159935.7,286047003.3,N
1512159955.5,286047002.1,N
1512159975.4,286047000.6,N
1512159995.2,286047001.1,N
1512160015.0,286046995.9,N
1512160015.9,286046995.9,N
1512160035.8,286046993.0,N
1512160055.6,286046990.4,N
1512160075.4,286046991.3,N
1512160095.3,286046988.6,N
1512160115.1,286046989.1,N
1512160116.0,286046989.1,N
1512160135.8,286046989.4,N
1512160155.6,286046986.9,N
1512160175.5,286046990.0,N
1512160195.3,286046988.1,N
1512160215.1,286046991.3,N
1512160235.9,286046988.6,N
1512160255.7,286046993.2,N
1512160275.5,286046991.0,N
1512160295.4,286046989.4,N
1512160315.2,286046989.0,N
1512160335.0,286046991.9,N
1512160335.9,286046991.9,N
1512160355.8,286046994.0,N
1512160375.6,286046999.6,N
1512160395.4,286046997.7,N
1512160415.3,286046995.3,N
1512160435.1,286046996.8,N
1512160436.0,286046996.8,N
1512160455.8,286046997.5,N
1512160475.7,286046993.7,N
1512160495.5,286046995.1,N
1512160515.3,286046998.6,N
1512160535.1,286046999.4,N
1512160555.9,286047001.7,N
1512160575.7,286047002.3,N
1512160595.5,286047002.7,N
1512160615.4,286047004.1,N
1512160635.2,286047005.5,N
1512160655.0,286047003.4,N
1512160655.9,286047003.4,N
1512160675.8,286047001.6,N
1512160695.6,286047001.2,N
1512160715.4,286047001.0,N
1512160735.3,286047001.2,N
1512160755.1,286047001.6,N
1512160756.0,286047001.6,N
1512160775.8,286047003.6,N
1512160795.7,286047005.4,N
1512160815.5,286047003.5,N
1512160835.3,286047003.2,N
1512160855.2,286046999.7,N
1512160875.9,286046999.8,N
1512160895.7,286047005.6,N
1512160915.5,286047005.6,N
1512160935.4,286047003.2,N
1512160955.2,286047007.5,N
1512160975.0,286047008.2,N
1512160975.9,286047008.2,N
1512160995.8,286047005.5,N
1512161015.6,286047005.3,N
1512161035.4,286047005.5,N
1512161055.3,286047002.7,N
1512161075.1,286046999.8,N
1512161076.0,286046999.8,N
1512161095.8,286047001.7,N
1512161115.7,286047004.2,N
1512161135.5,286047001.4,N
1512161155.3,286046996.9,N
1512161175.2,286046994.8,N
1512161195.9,286046991.6,N
1512161215.7,286046988.3,Y
1512161235.6,286046982.2,P
1512161255.4,286046982.2,N
1512161275.2,286046983.0,N
1512161295.1,286046981.3,N
1512161296.0,286046981.3,N
1512161315.8,286046981.2,N
1512161335.6,286046979.8,N
1512161355.5,286046978.3,Y
1512161375.3,286046993.3,P
1512161395.1,286046998.8,N
1512161415.8,286046999.5,N
1512161435.7,286046998.6,N
1512161455.5,286047000.8,N
1512161475.3,286047003.8,N
1512161495.2,286047005.5,N
1512161515.9,286047008.1,N
1512161535.7,286047009.7,N
1512161555.6,286047011.4,N
1512161575.4,286047014.0,N
1512161595.2,286047013.8,N
1512161615.1,286047016.9,N
1512161616.0,286047016.9,N
1512161635.8,286047017.4,N
1512161655.6,286047018.2,N
1512161675.5,286047018.5,N
1512161695.3,286047018.7,N
1512161715.1,286047018.9,N
1512161735.8,286047020.5,N
1512161755.7,286047024.2,N
1512161775.5,286047024.2,N
1512161795.3,286047022.6,N
1512161815.2,286047026.3,N
1512161835.0,286047024.0,N
1512161835.9,286047024.0,N
1512161855.7,286047023.8,N
1512161875.6,286047021.3,N
1512161895.4,286047021.0,N
1512161915.2,286047023.0,N
1512161935.1,286047023.5,N
1512161936.0,286047023.5,N
1512161955.8,286047021.8,N
1512161975.6,286047018.4,N
1512161995.5,286047012.8,N
